#timestamp,LO_Frequency,Hit,StdDev 
1508598015.6,286047001.3,N
1508598035.4,286047003.7,N
1508598055.3,286047001.8,N
1508598075.1,286047002.7,N
1508598095.8,286047000.7,N
1508598115.7,286047002.4,N
1508598135.5,286047003.2,N
1508598155.3,286047004.9,N
1508598175.2,286047001.7,N
1508598195.9,286047004.3,N
1508598215.7,286046998.1,N
1508598235.6,286047001.9,N
1508598255.4,286047002.1,N
1508598275.2,286047002.7,N
1508598295.0,286046999.9,N
1508598296.0,286046999.9,N
1508598315.8,286047006.0,N
1508598335.6,286047001.4,N
1508598355.4,286047002.6,N
1508598375.3,286047001.0,N
1508598395.1,286046998.8,N
1508598415.8,286046998.5,N
1508598435.7,286046997.9,N
1508598455.5,286047001.0,N
1508598475.3,286047000.5,N
1508598495.2,286047001.2,N
1508598515.9,286046999.3,N
1508598535.7,286047000.9,N
1508598555.6,286047002.7,N
1508598575.4,286047002.5,N
1508598595.2,286046999.3,N
1508598615.1,286046998.5,N
1508598616.0,286046998.5,N
1508598635.8,286047002.8,N
1508598655.6,286046999.0,N
1508598675.5,286047000.7,N
1508598695.3,286046997.7,N
1508598715.1,286046995.2,N
1508598735.0,286046997.0,N
1508598735.9,286046997.0,N
1508598755.7,286046997.0,N
1508598775.6,286046996.9,N
1508598795.4,286046994.9,N
1508598815.2,286046993.4,N
1508598835.1,286046994.4,N
1508598836.0,286046994.4,N
1508598855.8,286046995.6,N
1508598875.6,286046997.1,N
1508598895.5,286046997.1,N
1508598915.3,286046998.8,N
1508598935.1,286046997.4,N
1508598955.9,286047001.1,N
1508598975.7,286046999.3,N
1508598995.5,286047001.5,N
1508599015.4,286047004.0,N
1508599035.2,286047001.9,N
1508599055.0,286047003.7,N
1508599055.9,286047003.7,N
1508599075.8,286047001.8,N
1508599095.6,286046998.8,N
1508599115.4,286047003.8,N
1508599135.3,286047001.6,N
1508599155.1,286047003.9,N
1508599156.0,286047003.9,N
1508599175.8,286046998.6,N
1508599195.7,286046996.7,N
1508599215.5,286047002.1,N
1508599235.3,286047003.5,N
1508599255.2,286047001.5,N
1508599275.9,286047002.5,N
1508599295.7,286047001.5,N
1508599315.6,286047001.4,N
1508599335.4,286047000.9,N
1508599355.2,286046999.6,N
1508599375.0,286046999.0,N
1508599376.0,286046999.0,N
1508599395.8,286046997.2,N
1508599415.6,286046999.1,N
1508599435.4,286046997.2,N
1508599455.3,286046997.4,N
1508599475.1,286046995.0,N
1508599495.8,286046998.2,N
1508599515.7,286047000.1,N
1508599535.5,286047000.4,N
1508599555.3,286047001.1,N
1508599575.2,286047003.0,N
1508599595.9,286047003.5,N
1508599615.7,286047003.4,N
1508599635.6,286047009.5,Y
1508599655.4,286047008.7,P
1508599675.2,286047007.4,N
1508599695.1,286047005.3,N
1508599696.0,286047005.3,N
1508599715.8,286047005.4,N
1508599735.6,286047003.9,N
1508599755.5,286046999.4,N
1508599775.3,286046998.3,N
1508599795.1,286046995.1,N
1508599815.9,286046995.7,N
1508599835.7,286046996.1,N
1508599855.5,286046992.0,N
1508599875.4,286046993.0,N
1508599895.2,286046995.5,N
1508599915.0,286046993.7,N
1508599915.9,286046993.7,N
1508599935.8,286046995.8,N
1508599955.6,286046998.9,N
1508599975.4,286046998.9,N
1508599995.3,286046996.5,N
1508600015.1,286046997.6,N
1508600016.0,286046997.6,N
1508600035.8,286046998.9,N
1508600055.7,286046999.4,N
1508600075.5,286046999.0,N
1508600095.3,286046999.6,N
1508600115.2,286046997.0,N
1508600135.9,286046997.0,N
1508600155.7,286046997.3,N
1508600175.6,286046996.0,N
1508600195.4,286047002.3,N
1508600215.2,286046999.8,N
1508600235.0,286047005.2,N
1508600236.0,286047005.2,N
1508600255.8,286047003.5,N
1508600275.6,286047002.1,N
1508600295.5,286046999.9,N
1508600315.3,286047004.1,N
1508600335.1,286047001.4,N
1508600355.8,286047003.8,N
1508600375.7,286047007.1,N
1508600395.5,286047003.8,N
1508600415.3,286047000.1,N
1508600435.2,286047001.4,N
1508600455.0,286047002.8,N
1508600455.9,286047002.8,N
1508600475.7,286046998.1,N
1508600495.6,286047002.5,N
1508600515.4,286047002.8,N
1508600535.2,286046999.0,N
1508600555.1,286046996.6,N
1508600556.0,286046996.6,N
1508600575.8,286046998.7,N
1508600595.6,286046998.8,N
1508600615.5,286047005.8,N
1508600635.3,286047004.5,N
1508600655.1,286047000.8,N
1508600675.9,286047001.5,N
1508600695.7,286047002.0,N
1508600715.5,286046999.5,N
1508600735.4,286046995.6,N
1508600755.2,286046996.5,N
1508600775.0,286047001.8,N
1508600775.9,286047001.8,N
1508600795.8,286047003.1,N
1508600815.6,286047007.0,N
1508600835.4,286047007.9,N
1508600855.3,286047000.6,N
1508600875.1,286047000.2,N
1508600876.0,286047000.2,N
1508600895.8,286047004.4,N
1508600915.7,286046998.2,N
1508600935.5,286047001.5,N
1508600955.3,286047005.0,N
1508600975.2,286047007.7,N
1508600995.9,286047010.4,Y
1508601015.7,286047007.4,P
1508601035.6,286047004.5,N
1508601055.4,286047006.2,N
1508601075.2,286047003.8,N
1508601095.1,286047002.6,N
1508601096.0,286047002.6,N
1508601115.8,286047001.7,N
1508601135.6,286047003.4,N
1508601155.5,286047004.0,N
1508601175.3,286047001.9,N
1508601195.1,286047000.5,N
1508601215.9,286047006.8,Y
1508601235.7,286047001.7,P
1508601255.5,286047002.6,P
1508601275.4,286047001.8,N
1508601295.2,286046999.9,N
1508601315.0,286047000.5,N
1508601315.9,286047000.5,N
1508601335.8,286047001.1,N
1508601355.6,286047001.3,N
1508601375.4,286047003.3,Y
1508601395.3,286047000.4,P
1508601415.1,286046998.6,N
1508601416.0,286046998.6,N
1508601435.8,286047000.9,N
1508601455.7,286046996.5,Y
1508601475.5,286046996.8,P
1508601495.3,286046999.7,N
1508601515.2,286047003.7,N
1508601535.9,286046999.7,N
1508601555.7,286046998.2,N
1508601575.6,286047001.0,N
1508601595.4,286047000.5,N
